owner,sensor,date,latitude,longitude,vertical_datum,wind_speed,wind_to_direction,wind_speed_of_gust,qcFlag 
COMPS,ioos:station:USF.COMPS:NFB:1,2014-11-01T00:00:00Z,25.0840,-81.0960,6.0,9.02,328.66,10.78,'1111122,1111122,1111122' 
COMPS,ioos:station:USF.COMPS:NFB:1,2014-11-01T00:06:00Z,25.0840,-81.0960,6.0,9.44,323.54,11.07,'1111122,1111122,1111122' 
COMPS,ioos:station:USF.COMPS:NFB:1,2014-11-01T00:12:00Z,25.0840,-81.0960,6.0,8.72,329.82,10.38,'1111122,1111122,1111122' 
COMPS,ioos:station:USF.COMPS:NFB:1,2014-11-01T00:18:00Z,25.0840,-81.0960,6.0,8.91,335.16,10.19,'1111122,1111122,1111122' 
COMPS,ioos:station:USF.COMPS:NFB:1,2014-11-01T00:24:00Z,25.0840,-81.0960,6.0,9.01,328.08,10.48,'1111122,1111122,1111122' 
COMPS,ioos:station:USF.COMPS:NFB:1,2014-11-01T00:30:00Z,25.0840,-81.0960,6.0,9.41,331.12,11.36,'1111122,1111122,1111122' 
COMPS,ioos:station:USF.COMPS:NFB:1,2014-11-01T00:36:00Z,25.0840,-81.0960,6.0,9.01,331.75,10.97,'1111122,1111122,1111122' 
COMPS,ioos:station:USF.COMPS:NFB:1,2014-11-01T00:42:00Z,25.0840,-81.0960,6.0,9.47,330.71,11.56,'1111122,1111122,1111122' 
COMPS,ioos:station:USF.COMPS:NFB:1,2014-11-01T00:48:00Z,25.0840,-81.0960,6.0,8.93,329.39,10.68,'1111122,1111122,1111122' 
COMPS,ioos:station:USF.COMPS:NFB:1,2014-11-01T00:54:00Z,25.0840,-81.0960,6.0,9.09,331.99,10.58,'1111122,1111122,1111122' 
COMPS,ioos:station:USF.COMPS:NFB:1,2014-11-01T01:00:00Z,25.0840,-81.0960,6.0,9.36,330.14,11.36,'1111122,1111122,1111122' 
COMPS,ioos:station:USF.COMPS:NFB:1,2014-11-01T01:06:00Z,25.0840,-81.0960,6.0,8.49,325.71,9.99,'1111122,1111122,1111122' 
COMPS,ioos:station:USF.COMPS:NFB:1,2014-11-01T01:12:00Z,25.0840,-81.0960,6.0,9.29,327.41,11.36,'1111122,1111122,1111122' 
COMPS,ioos:station:USF.COMPS:NFB:1,2014-11-01T01:18:00Z,25.0840,-81.0960,6.0,9.23,336.35,11.27,'1111122,1111122,1111122' 
COMPS,ioos:station:USF.COMPS:NFB:1,2014-11-01T01:24:00Z,25.0840,-81.0960,6.0,9.26,328.55,10.48,'1111122,1111122,1111122' 
COMPS,ioos:station:USF.COMPS:NFB:1,2014-11-01T01:30:00Z,25.0840,-81.0960,6.0,8.69,322.47,11.56,'1111122,1111122,1111122' 
COMPS,ioos:station:USF.COMPS:NFB:1,2014-11-01T01:36:00Z,25.0840,-81.0960,6.0,7.63,337.12,9.01,'1111122,1111122,1111122' 
COMPS,ioos:station:USF.COMPS:NFB:1,2014-11-01T01:42:00Z,25.0840,-81.0960,6.0,8.35,331.48,9.6,'1111122,1111122,1111122' 
COMPS,ioos:station:USF.COMPS:NFB:1,2014-11-01T01:48:00Z,25.0840,-81.0960,6.0,8.35,328.31,10.19,'1111122,1111122,1111122' 
COMPS,ioos:station:USF.COMPS:NFB:1,2014-11-01T01:54:00Z,25.0840,-81.0960,6.0,8.58,332.39,9.99,'1111122,1111122,1111122' 
COMPS,ioos:station:USF.COMPS:NFB:1,2014-11-01T02:00:00Z,25.0840,-81.0960,6.0,8.71,332.02,10.58,'1111122,1111122,1111122' 
COMPS,ioos:station:USF.COMPS:NFB:1,2014-11-01T02:06:00Z,25.0840,-81.0960,6.0,8.97,326.0,10.09,'1111122,1111122,1111122' 
COMPS,ioos:station:USF.COMPS:NFB:1,2014-11-01T02:12:00Z,25.0840,-81.0960,6.0,8.77,324.06,10.29,'1111122,1111122,1111122' 
COMPS,ioos:station:USF.COMPS:NFB:1,2014-11-01T02:18:00Z,25.0840,-81.0960,6.0,9.03,330.98,10.87,'1111122,1111122,1111122' 
COMPS,ioos:station:USF.COMPS:NFB:1,2014-11-01T02:24:00Z,25.0840,-81.0960,6.0,9.51,327.95,11.17,'1111122,1111122,1111122' 
COMPS,ioos:station:USF.COMPS:NFB:1,2014-11-01T02:30:00Z,25.0840,-81.0960,6.0,8.95,330.94,10.19,'1111122,1111122,1111122' 
COMPS,ioos:station:USF.COMPS:NFB:1,2014-11-01T02:36:00Z,25.0840,-81.0960,6.0,10.03,329.21,12.15,'1111122,1111122,1111122' 
COMPS,ioos:station:USF.COMPS:NFB:1,2014-11-01T02:42:00Z,25.0840,-81.0960,6.0,9.38,335.86,11.17,'1111122,1111122,1111122' 
COMPS,ioos:station:USF.COMPS:NFB:1,2014-11-01T02:48:00Z,25.0840,-81.0960,6.0,9.08,328.96,11.17,'1111122,1111122,1111122' 
COMPS,ioos:station:USF.COMPS:NFB:1,2014-11-01T02:54:00Z,25.0840,-81.0960,6.0,9.08,329.71,10.48,'1111122,1111122,1111122' 
COMPS,ioos:station:USF.COMPS:NFB:1,2014-11-01T03:00:00Z,25.0840,-81.0960,6.0,9.18,333.84,11.27,'1111122,1111122,1111122' 
COMPS,ioos:station:USF.COMPS:NFB:1,2014-11-01T03:06:00Z,25.0840,-81.0960,6.0,8.71,333.95,10.38,'1111122,1111122,1111122' 
COMPS,ioos:station:USF.COMPS:NFB:1,2014-11-01T03:12:00Z,25.0840,-81.0960,6.0,9.19,334.45,10.97,'1111122,1111122,1111122' 
COMPS,ioos:station:USF.COMPS:NFB:1,2014-11-01T03:18:00Z,25.0840,-81.0960,6.0,9.19,329.66,10.68,'1111122,1111122,1111122' 
COMPS,ioos:station:USF.COMPS:NFB:1,2014-11-01T03:24:00Z,25.0840,-81.0960,6.0,9.25,334.95,11.07,'1111122,1111122,1111122' 
COMPS,ioos:station:USF.COMPS:NFB:1,2014-11-01T03:30:00Z,25.0840,-81.0960,6.0,9.91,342.27,12.15,'1111122,1111122,1111122' 
COMPS,ioos:station:USF.COMPS:NFB:1,2014-11-01T03:36:00Z,25.0840,-81.0960,6.0,9.79,345.48,11.85,'1111122,1111122,1111122' 
COMPS,ioos:station:USF.COMPS:NFB:1,2014-11-01T03:42:00Z,25.0840,-81.0960,6.0,9.91,339.83,12.93,'1111122,1111122,1111122' 
COMPS,ioos:station:USF.COMPS:NFB:1,2014-11-01T03:48:00Z,25.0840,-81.0960,6.0,9.21,347.24,12.74,'1111122,1111122,1111122' 
COMPS,ioos:station:USF.COMPS:NFB:1,2014-11-01T03:54:00Z,25.0840,-81.0960,6.0,10.17,345.88,12.15,'1111122,1111122,1111122' 
COMPS,ioos:station:USF.COMPS:NFB:1,2014-11-01T04:00:00Z,25.0840,-81.0960,6.0,9.57,349.0,11.36,'1111122,1111122,1111122' 
COMPS,ioos:station:USF.COMPS:NFB:1,2014-11-01T04:06:00Z,25.0840,-81.0960,6.0,9.62,341.18,11.75,'1111122,1111122,1111122' 
COMPS,ioos:station:USF.COMPS:NFB:1,2014-11-01T04:12:00Z,25.0840,-81.0960,6.0,9.77,345.74,12.25,'1111122,1111122,1111122' 
COMPS,ioos:station:USF.COMPS:NFB:1,2014-11-01T04:18:00Z,25.0840,-81.0960,6.0,9.58,346.39,11.36,'1111122,1111122,1111122' 
COMPS,ioos:station:USF.COMPS:NFB:1,2014-11-01T04:24:00Z,25.0840,-81.0960,6.0,10.1,336.43,12.64,'1111122,1111122,1111122' 
COMPS,ioos:station:USF.COMPS:NFB:1,2014-11-01T04:30:00Z,25.0840,-81.0960,6.0,10.38,342.96,12.54,'1111122,1111122,1111122' 
COMPS,ioos:station:USF.COMPS:NFB:1,2014-11-01T04:36:00Z,25.0840,-81.0960,6.0,9.43,339.68,11.27,'1111122,1111122,1111122' 
COMPS,ioos:station:USF.COMPS:NFB:1,2014-11-01T04:42:00Z,25.0840,-81.0960,6.0,9.97,342.67,11.66,'1111122,1111122,1111122' 
COMPS,ioos:station:USF.COMPS:NFB:1,2014-11-01T04:48:00Z,25.0840,-81.0960,6.0,10.12,343.4,11.56,'1111122,1111122,1111122' 
COMPS,ioos:station:USF.COMPS:NFB:1,2014-11-01T04:54:00Z,25.0840,-81.0960,6.0,9.22,338.09,11.75,'1111122,1111122,1111122' 
COMPS,ioos:station:USF.COMPS:NFB:1,2014-11-01T05:00:00Z,25.0840,-81.0960,6.0,9.3,341.73,11.07,'1111122,1111122,1111122' 
COMPS,ioos:station:USF.COMPS:NFB:1,2014-11-01T05:06:00Z,25.0840,-81.0960,6.0,8.88,338.5,11.36,'1111122,1111122,1111122' 
COMPS,ioos:station:USF.COMPS:NFB:1,2014-11-01T05:12:00Z,25.0840,-81.0960,6.0,8.42,337.05,10.09,'1111122,1111122,1111122' 
COMPS,ioos:station:USF.COMPS:NFB:1,2014-11-01T05:18:00Z,25.0840,-81.0960,6.0,8.23,338.1,9.7,'1111122,1111122,1111122' 
COMPS,ioos:station:USF.COMPS:NFB:1,2014-11-01T05:24:00Z,25.0840,-81.0960,6.0,8.5,343.4,10.09,'1111122,1111122,1111122' 
COMPS,ioos:station:USF.COMPS:NFB:1,2014-11-01T05:30:00Z,25.0840,-81.0960,6.0,7.8,340.34,9.3,'1111122,1111122,1111122' 
COMPS,ioos:station:USF.COMPS:NFB:1,2014-11-01T05:36:00Z,25.0840,-81.0960,6.0,7.03,342.57,8.91,'1111122,1111122,1111122' 
COMPS,ioos:station:USF.COMPS:NFB:1,2014-11-01T05:42:00Z,25.0840,-81.0960,6.0,8.65,337.95,10.38,'1111122,1111122,1111122' 
COMPS,ioos:station:USF.COMPS:NFB:1,2014-11-01T05:48:00Z,25.0840,-81.0960,6.0,7.13,348.21,8.33,'1111122,1111122,1111122' 
COMPS,ioos:station:USF.COMPS:NFB:1,2014-11-01T05:54:00Z,25.0840,-81.0960,6.0,7.4,345.01,8.82,'1111122,1111122,1111122' 
COMPS,ioos:station:USF.COMPS:NFB:1,2014-11-01T06:00:00Z,25.0840,-81.0960,6.0,7.18,349.48,8.52,'1111122,1111122,1111122' 
COMPS,ioos:station:USF.COMPS:NFB:1,2014-11-01T06:06:00Z,25.0840,-81.0960,6.0,6.48,3.99,7.44,'1111122,1111122,1111122' 
COMPS,ioos:station:USF.COMPS:NFB:1,2014-11-01T06:12:00Z,25.0840,-81.0960,6.0,6.11,0.5,6.85,'1111122,1111122,1111122' 
COMPS,ioos:station:USF.COMPS:NFB:1,2014-11-01T06:18:00Z,25.0840,-81.0960,6.0,6.86,3.14,8.72,'1111122,1111122,1111122' 
COMPS,ioos:station:USF.COMPS:NFB:1,2014-11-01T06:24:00Z,25.0840,-81.0960,6.0,6.3,6.27,7.74,'1111122,1111122,1111122' 
COMPS,ioos:station:USF.COMPS:NFB:1,2014-11-01T06:30:00Z,25.0840,-81.0960,6.0,6.05,359.28,7.54,'1111122,1111122,1111122' 
COMPS,ioos:station:USF.COMPS:NFB:1,2014-11-01T06:36:00Z,25.0840,-81.0960,6.0,6.63,1.94,7.93,'1111122,1111122,1111122' 
COMPS,ioos:station:USF.COMPS:NFB:1,2014-11-01T06:42:00Z,25.0840,-81.0960,6.0,6.38,12.23,8.03,'1111122,1111122,1111122' 
COMPS,ioos:station:USF.COMPS:NFB:1,2014-11-01T06:48:00Z,25.0840,-81.0960,6.0,5.34,24.84,6.27,'1111122,1111122,1111122' 
COMPS,ioos:station:USF.COMPS:NFB:1,2014-11-01T06:54:00Z,25.0840,-81.0960,6.0,4.9,30.82,5.48,'1111122,1111122,1111122' 
COMPS,ioos:station:USF.COMPS:NFB:1,2014-11-01T07:00:00Z,25.0840,-81.0960,6.0,5.23,30.87,6.17,'1111122,1111122,1111122' 
COMPS,ioos:station:USF.COMPS:NFB:1,2014-11-01T07:06:00Z,25.0840,-81.0960,6.0,5.0,29.92,5.97,'1111122,1111122,1111122' 
COMPS,ioos:station:USF.COMPS:NFB:1,2014-11-01T07:12:00Z,25.0840,-81.0960,6.0,4.98,30.56,5.48,'1111122,1111122,1111122' 
COMPS,ioos:station:USF.COMPS:NFB:1,2014-11-01T07:18:00Z,25.0840,-81.0960,6.0,5.06,30.71,5.78,'1111122,1111122,1111122' 
COMPS,ioos:station:USF.COMPS:NFB:1,2014-11-01T07:24:00Z,25.0840,-81.0960,6.0,4.93,31.0,5.78,'1111122,1111122,1111122' 
COMPS,ioos:station:USF.COMPS:NFB:1,2014-11-01T07:30:00Z,25.0840,-81.0960,6.0,4.66,25.72,5.58,'1111122,1111122,1111122' 
COMPS,ioos:station:USF.COMPS:NFB:1,2014-11-01T07:36:00Z,25.0840,-81.0960,6.0,4.57,22.86,5.29,'1111122,1111122,1111122' 
COMPS,ioos:station:USF.COMPS:NFB:1,2014-11-01T07:42:00Z,25.0840,-81.0960,6.0,4.44,25.07,5.29,'1111122,1111122,1111122' 
COMPS,ioos:station:USF.COMPS:NFB:1,2014-11-01T07:48:00Z,25.0840,-81.0960,6.0,4.62,25.73,5.39,'1111122,1111122,1111122' 
COMPS,ioos:station:USF.COMPS:NFB:1,2014-11-01T07:54:00Z,25.0840,-81.0960,6.0,4.98,31.34,5.87,'1111122,1111122,1111122' 
COMPS,ioos:station:USF.COMPS:NFB:1,2014-11-01T08:00:00Z,25.0840,-81.0960,6.0,4.97,32.98,5.68,'1111122,1111122,1111122' 
COMPS,ioos:station:USF.COMPS:NFB:1,2014-11-01T08:06:00Z,25.0840,-81.0960,6.0,4.88,29.13,5.97,'1111122,1111122,1111122' 
COMPS,ioos:station:USF.COMPS:NFB:1,2014-11-01T08:12:00Z,25.0840,-81.0960,6.0,4.93,28.14,5.68,'1111122,1111122,1111122' 
COMPS,ioos:station:USF.COMPS:NFB:1,2014-11-01T08:18:00Z,25.0840,-81.0960,6.0,5.02,27.62,5.68,'1111122,1111122,1111122' 
COMPS,ioos:station:USF.COMPS:NFB:1,2014-11-01T08:24:00Z,25.0840,-81.0960,6.0,5.36,30.27,6.27,'1111122,1111122,1111122' 
COMPS,ioos:station:USF.COMPS:NFB:1,2014-11-01T08:30:00Z,25.0840,-81.0960,6.0,5.49,32.15,6.56,'1111122,1111122,1111122' 
COMPS,ioos:station:USF.COMPS:NFB:1,2014-11-01T08:36:00Z,25.0840,-81.0960,6.0,5.87,30.35,6.85,'1111122,1111122,1111122' 
COMPS,ioos:station:USF.COMPS:NFB:1,2014-11-01T08:42:00Z,25.0840,-81.0960,6.0,5.83,32.36,6.66,'1111122,1111122,1111122' 
COMPS,ioos:station:USF.COMPS:NFB:1,2014-11-01T08:48:00Z,25.0840,-81.0960,6.0,6.42,33.46,7.54,'1111122,1111122,1111122' 
COMPS,ioos:station:USF.COMPS:NFB:1,2014-11-01T08:54:00Z,25.0840,-81.0960,6.0,5.89,35.32,7.05,'1111122,1111122,1111122' 
COMPS,ioos:station:USF.COMPS:NFB:1,2014-11-01T09:00:00Z,25.0840,-81.0960,6.0,5.5,31.67,6.56,'1111122,1111122,1111122' 
COMPS,ioos:station:USF.COMPS:NFB:1,2014-11-01T09:06:00Z,25.0840,-81.0960,6.0,5.93,34.68,7.15,'1111122,1111122,1111122' 
COMPS,ioos:station:USF.COMPS:NFB:1,2014-11-01T09:12:00Z,25.0840,-81.0960,6.0,5.8,31.99,6.56,'1111122,1111122,1111122' 
COMPS,ioos:station:USF.COMPS:NFB:1,2014-11-01T09:18:00Z,25.0840,-81.0960,6.0,5.84,28.74,6.95,'1111122,1111122,1111122' 
COMPS,ioos:station:USF.COMPS:NFB:1,2014-11-01T09:24:00Z,25.0840,-81.0960,6.0,5.97,30.1,7.15,'1111122,1111122,1111122' 
COMPS,ioos:station:USF.COMPS:NFB:1,2014-11-01T09:30:00Z,25.0840,-81.0960,6.0,5.82,34.12,6.76,'1111122,1111122,1111122' 
COMPS,ioos:station:USF.COMPS:NFB:1,2014-11-01T09:36:00Z,25.0840,-81.0960,6.0,5.25,35.76,6.37,'1111122,1111122,1111122' 
COMPS,ioos:station:USF.COMPS:NFB:1,2014-11-01T09:42:00Z,25.0840,-81.0960,6.0,5.73,31.71,6.95,'1111122,1111122,1111122' 
COMPS,ioos:station:USF.COMPS:NFB:1,2014-11-01T09:48:00Z,25.0840,-81.0960,6.0,5.57,31.94,6.37,'1111122,1111122,1111122' 
COMPS,ioos:station:USF.COMPS:NFB:1,2014-11-01T09:54:00Z,25.0840,-81.0960,6.0,5.89,34.46,6.85,'1111122,1111122,1111122' 
COMPS,ioos:station:USF.COMPS:NFB:1,2014-11-01T10:00:00Z,25.0840,-81.0960,6.0,5.64,30.98,6.76,'1111122,1111122,1111122' 
COMPS,ioos:station:USF.COMPS:NFB:1,2014-11-01T10:06:00Z,25.0840,-81.0960,6.0,5.49,34.23,6.17,'1111122,1111122,1111122' 
COMPS,ioos:station:USF.COMPS:NFB:1,2014-11-01T10:12:00Z,25.0840,-81.0960,6.0,5.24,30.42,5.97,'1111122,1111122,1111122' 
COMPS,ioos:station:USF.COMPS:NFB:1,2014-11-01T10:18:00Z,25.0840,-81.0960,6.0,4.54,33.37,5.58,'1111122,1111122,1111122' 
COMPS,ioos:station:USF.COMPS:NFB:1,2014-11-01T10:24:00Z,25.0840,-81.0960,6.0,4.53,36.85,5.39,'1111122,1111122,1111122' 
COMPS,ioos:station:USF.COMPS:NFB:1,2014-11-01T10:30:00Z,25.0840,-81.0960,6.0,4.27,34.78,5.19,'1111122,1111122,1111122' 
COMPS,ioos:station:USF.COMPS:NFB:1,2014-11-01T10:36:00Z,25.0840,-81.0960,6.0,4.06,34.04,5.29,'1111122,1111122,1111122' 
COMPS,ioos:station:USF.COMPS:NFB:1,2014-11-01T10:42:00Z,25.0840,-81.0960,6.0,3.71,30.07,4.7,'1111122,1111122,1111122' 
COMPS,ioos:station:USF.COMPS:NFB:1,2014-11-01T10:48:00Z,25.0840,-81.0960,6.0,4.02,28.48,4.7,'1111122,1111122,1111122' 
COMPS,ioos:station:USF.COMPS:NFB:1,2014-11-01T10:54:00Z,25.0840,-81.0960,6.0,3.69,30.37,4.41,'1111122,1111122,1111122' 
COMPS,ioos:station:USF.COMPS:NFB:1,2014-11-01T11:00:00Z,25.0840,-81.0960,6.0,3.47,27.71,4.11,'1111122,1111122,1111122' 
COMPS,ioos:station:USF.COMPS:NFB:1,2014-11-01T11:06:00Z,25.0840,-81.0960,6.0,3.39,31.51,4.21,'1111122,1111122,1111122' 
COMPS,ioos:station:USF.COMPS:NFB:1,2014-11-01T11:12:00Z,25.0840,-81.0960,6.0,4.38,28.49,5.29,'1111122,1111122,1111122' 
COMPS,ioos:station:USF.COMPS:NFB:1,2014-11-01T11:18:00Z,25.0840,-81.0960,6.0,4.56,29.02,4.99,'1111122,1111122,1111122' 
COMPS,ioos:station:USF.COMPS:NFB:1,2014-11-01T11:24:00Z,25.0840,-81.0960,6.0,4.29,30.04,5.78,'1111122,1111122,1111122' 
COMPS,ioos:station:USF.COMPS:NFB:1,2014-11-01T11:30:00Z,25.0840,-81.0960,6.0,4.03,29.04,4.7,'1111122,1111122,1111122' 
COMPS,ioos:station:USF.COMPS:NFB:1,2014-11-01T11:36:00Z,25.0840,-81.0960,6.0,3.83,30.23,4.5,'1111122,1111122,1111122' 
COMPS,ioos:station:USF.COMPS:NFB:1,2014-11-01T11:42:00Z,25.0840,-81.0960,6.0,3.91,29.17,4.9,'1111122,1111122,1111122' 
COMPS,ioos:station:USF.COMPS:NFB:1,2014-11-01T11:48:00Z,25.0840,-81.0960,6.0,3.7,29.16,4.6,'1111122,1111122,1111122' 
COMPS,ioos:station:USF.COMPS:NFB:1,2014-11-01T11:54:00Z,25.0840,-81.0960,6.0,3.3,31.48,4.21,'1111122,1111122,1111122' 
COMPS,ioos:station:USF.COMPS:NFB:1,2014-11-01T12:00:00Z,25.0840,-81.0960,6.0,3.36,39.74,4.21,'1111122,1111122,1111122' 
COMPS,ioos:station:USF.COMPS:NFB:1,2014-11-01T12:06:00Z,25.0840,-81.0960,6.0,2.87,46.48,4.01,'1111122,1111122,1111122' 
COMPS,ioos:station:USF.COMPS:NFB:1,2014-11-01T12:12:00Z,25.0840,-81.0960,6.0,2.16,46.27,2.84,'1111122,1111122,1111122' 
COMPS,ioos:station:USF.COMPS:NFB:1,2014-11-01T12:18:00Z,25.0840,-81.0960,6.0,2.02,62.2,2.74,'1111122,1111122,1111122' 
COMPS,ioos:station:USF.COMPS:NFB:1,2014-11-01T12:24:00Z,25.0840,-81.0960,6.0,1.09,77.19,1.66,'1111122,1111122,1111122' 
COMPS,ioos:station:USF.COMPS:NFB:1,2014-11-01T12:30:00Z,25.0840,-81.0960,6.0,0.66,88.48,1.56,'1111122,1111122,1111122' 
COMPS,ioos:station:USF.COMPS:NFB:1,2014-11-01T12:36:00Z,25.0840,-81.0960,6.0,0.5,76.62,1.37,'1111122,1111122,1111122' 
COMPS,ioos:station:USF.COMPS:NFB:1,2014-11-01T12:42:00Z,25.0840,-81.0960,6.0,0.55,41.81,1.46,'1111122,1111122,1111122' 
COMPS,ioos:station:USF.COMPS:NFB:1,2014-11-01T12:48:00Z,25.0840,-81.0960,6.0,2.09,32.27,3.03,'1111122,1111122,1111122' 
COMPS,ioos:station:USF.COMPS:NFB:1,2014-11-01T12:54:00Z,25.0840,-81.0960,6.0,1.95,60.76,3.91,'1111122,1111122,1111122' 
COMPS,ioos:station:USF.COMPS:NFB:1,2014-11-01T13:00:00Z,25.0840,-81.0960,6.0,7.04,320.84,9.8,'1111122,1111122,1111122' 
COMPS,ioos:station:USF.COMPS:NFB:1,2014-11-01T13:06:00Z,25.0840,-81.0960,6.0,7.15,311.45,9.4,'1111122,1111122,1111122' 
COMPS,ioos:station:USF.COMPS:NFB:1,2014-11-01T13:12:00Z,25.0840,-81.0960,6.0,7.31,310.46,8.91,'1111122,1111122,1111122' 
COMPS,ioos:station:USF.COMPS:NFB:1,2014-11-01T13:18:00Z,25.0840,-81.0960,6.0,7.81,305.36,8.82,'1111122,1111122,1111122' 
COMPS,ioos:station:USF.COMPS:NFB:1,2014-11-01T13:24:00Z,25.0840,-81.0960,6.0,7.87,303.72,9.4,'1111122,1111122,1111122' 
COMPS,ioos:station:USF.COMPS:NFB:1,2014-11-01T13:30:00Z,25.0840,-81.0960,6.0,8.76,308.37,10.09,'1111122,1111122,1111122' 
COMPS,ioos:station:USF.COMPS:NFB:1,2014-11-01T13:36:00Z,25.0840,-81.0960,6.0,8.09,311.71,9.21,'1111122,1111122,1111122' 
COMPS,ioos:station:USF.COMPS:NFB:1,2014-11-01T13:42:00Z,25.0840,-81.0960,6.0,8.27,310.98,10.19,'1111122,1111122,1111122' 
COMPS,ioos:station:USF.COMPS:NFB:1,2014-11-01T13:48:00Z,25.0840,-81.0960,6.0,8.15,316.81,9.89,'1111122,1111122,1111122' 
COMPS,ioos:station:USF.COMPS:NFB:1,2014-11-01T13:54:00Z,25.0840,-81.0960,6.0,8.9,318.21,10.68,'1111122,1111122,1111122' 
COMPS,ioos:station:USF.COMPS:NFB:1,2014-11-01T14:00:00Z,25.0840,-81.0960,6.0,7.85,313.75,9.11,'1111122,1111122,1111122' 
COMPS,ioos:station:USF.COMPS:NFB:1,2014-11-01T14:06:00Z,25.0840,-81.0960,6.0,8.91,312.77,10.87,'1111122,1111122,1111122' 
COMPS,ioos:station:USF.COMPS:NFB:1,2014-11-01T14:12:00Z,25.0840,-81.0960,6.0,8.78,316.26,10.58,'1111122,1111122,1111122' 
COMPS,ioos:station:USF.COMPS:NFB:1,2014-11-01T14:18:00Z,25.0840,-81.0960,6.0,8.41,312.19,10.48,'1111122,1111122,1111122' 
COMPS,ioos:station:USF.COMPS:NFB:1,2014-11-01T14:24:00Z,25.0840,-81.0960,6.0,8.8,303.58,10.09,'1111122,1111122,1111122' 
COMPS,ioos:station:USF.COMPS:NFB:1,2014-11-01T14:30:00Z,25.0840,-81.0960,6.0,8.28,308.83,9.5,'1111122,1111122,1111122' 
COMPS,ioos:station:USF.COMPS:NFB:1,2014-11-01T14:36:00Z,25.0840,-81.0960,6.0,7.52,314.97,8.82,'1111122,1111122,1111122' 
COMPS,ioos:station:USF.COMPS:NFB:1,2014-11-01T14:42:00Z,25.0840,-81.0960,6.0,8.1,316.52,9.7,'1111122,1111122,1111122' 
COMPS,ioos:station:USF.COMPS:NFB:1,2014-11-01T14:48:00Z,25.0840,-81.0960,6.0,8.97,309.65,10.97,'1111122,1111122,1111122' 
COMPS,ioos:station:USF.COMPS:NFB:1,2014-11-01T14:54:00Z,25.0840,-81.0960,6.0,9.96,311.58,11.95,'1111122,1111122,1111122' 
COMPS,ioos:station:USF.COMPS:NFB:1,2014-11-01T15:00:00Z,25.0840,-81.0960,6.0,8.94,305.61,10.09,'1111122,1111122,1111122' 
COMPS,ioos:station:USF.COMPS:NFB:1,2014-11-01T15:06:00Z,25.0840,-81.0960,6.0,9.34,307.52,11.36,'1111122,1111122,1111122' 
COMPS,ioos:station:USF.COMPS:NFB:1,2014-11-01T15:12:00Z,25.0840,-81.0960,6.0,9.2,306.09,10.87,'1111122,1111122,1111122' 
COMPS,ioos:station:USF.COMPS:NFB:1,2014-11-01T15:18:00Z,25.0840,-81.0960,6.0,8.64,302.07,9.6,'1111122,1111122,1111122' 
COMPS,ioos:station:USF.COMPS:NFB:1,2014-11-01T15:24:00Z,25.0840,-81.0960,6.0,9.13,306.66,10.29,'1111122,1111122,1111122' 
COMPS,ioos:station:USF.COMPS:NFB:1,2014-11-01T15:30:00Z,25.0840,-81.0960,6.0,9.65,304.53,11.17,'1111122,1111122,1111122' 
COMPS,ioos:station:USF.COMPS:NFB:1,2014-11-01T15:36:00Z,25.0840,-81.0960,6.0,8.4,303.44,10.19,'1111122,1111122,1111122' 
COMPS,ioos:station:USF.COMPS:NFB:1,2014-11-01T15:42:00Z,25.0840,-81.0960,6.0,9.23,308.83,10.68,'1111122,1111122,1111122' 
COMPS,ioos:station:USF.COMPS:NFB:1,2014-11-01T15:48:00Z,25.0840,-81.0960,6.0,10.04,301.61,11.66,'1111122,1111122,1111122' 
COMPS,ioos:station:USF.COMPS:NFB:1,2014-11-01T15:54:00Z,25.0840,-81.0960,6.0,11.3,331.95,14.6,'1111122,1111122,1111122' 
COMPS,ioos:station:USF.COMPS:NFB:1,2014-11-01T16:00:00Z,25.0840,-81.0960,6.0,11.89,351.37,14.3,'1111122,1111122,1111122' 
COMPS,ioos:station:USF.COMPS:NFB:1,2014-11-01T16:06:00Z,25.0840,-81.0960,6.0,11.17,348.12,12.83,'1111122,1111122,1111122' 
COMPS,ioos:station:USF.COMPS:NFB:1,2014-11-01T16:12:00Z,25.0840,-81.0960,6.0,11.28,356.67,13.81,'1111122,1111122,1111122' 
COMPS,ioos:station:USF.COMPS:NFB:1,2014-11-01T16:18:00Z,25.0840,-81.0960,6.0,11.13,357.36,13.71,'1111122,1111122,1111122' 
COMPS,ioos:station:USF.COMPS:NFB:1,2014-11-01T16:24:00Z,25.0840,-81.0960,6.0,9.88,358.5,12.54,'1111122,1111122,1111122' 
COMPS,ioos:station:USF.COMPS:NFB:1,2014-11-01T16:30:00Z,25.0840,-81.0960,6.0,9.58,357.68,10.97,'1111122,1111122,1111122' 
COMPS,ioos:station:USF.COMPS:NFB:1,2014-11-01T16:36:00Z,25.0840,-81.0960,6.0,10.56,355.16,13.03,'1111122,1111122,1111122' 
COMPS,ioos:station:USF.COMPS:NFB:1,2014-11-01T16:42:00Z,25.0840,-81.0960,6.0,9.9,346.44,11.95,'1111122,1111122,1111122' 
COMPS,ioos:station:USF.COMPS:NFB:1,2014-11-01T16:48:00Z,25.0840,-81.0960,6.0,9.24,349.02,11.07,'1111122,1111122,1111122' 
COMPS,ioos:station:USF.COMPS:NFB:1,2014-11-01T16:54:00Z,25.0840,-81.0960,6.0,9.55,349.41,11.95,'1111122,1111122,1111122' 
COMPS,ioos:station:USF.COMPS:NFB:1,2014-11-01T17:00:00Z,25.0840,-81.0960,6.0,9.48,353.14,11.36,'1111122,1111122,1111122' 
COMPS,ioos:station:USF.COMPS:NFB:1,2014-11-01T17:06:00Z,25.0840,-81.0960,6.0,9.84,348.77,12.64,'1111122,1111122,1111122' 
COMPS,ioos:station:USF.COMPS:NFB:1,2014-11-01T17:12:00Z,25.0840,-81.0960,6.0,10.24,346.73,12.15,'1111122,1111122,1111122' 
COMPS,ioos:station:USF.COMPS:NFB:1,2014-11-01T17:18:00Z,25.0840,-81.0960,6.0,9.67,349.77,11.27,'1111122,1111122,1111122' 
COMPS,ioos:station:USF.COMPS:NFB:1,2014-11-01T17:24:00Z,25.0840,-81.0960,6.0,10.03,350.63,11.66,'1111122,1111122,1111122' 
COMPS,ioos:station:USF.COMPS:NFB:1,2014-11-01T17:30:00Z,25.0840,-81.0960,6.0,10.87,346.56,12.83,'1111122,1111122,1111122' 
COMPS,ioos:station:USF.COMPS:NFB:1,2014-11-01T17:36:00Z,25.0840,-81.0960,6.0,11.67,342.27,13.91,'1111122,1111122,1111122' 
COMPS,ioos:station:USF.COMPS:NFB:1,2014-11-01T17:42:00Z,25.0840,-81.0960,6.0,11.64,343.38,13.03,'1111122,1111122,1111122' 
COMPS,ioos:station:USF.COMPS:NFB:1,2014-11-01T17:48:00Z,25.0840,-81.0960,6.0,11.3,339.81,12.83,'1111122,1111122,1111122' 
COMPS,ioos:station:USF.COMPS:NFB:1,2014-11-01T17:54:00Z,25.0840,-81.0960,6.0,11.29,340.1,13.52,'1111122,1111122,1111122' 
COMPS,ioos:station:USF.COMPS:NFB:1,2014-11-01T18:00:00Z,25.0840,-81.0960,6.0,11.38,340.55,13.42,'1111122,1111122,1111122' 
COMPS,ioos:station:USF.COMPS:NFB:1,2014-11-01T18:06:00Z,25.0840,-81.0960,6.0,11.34,341.19,13.13,'1111122,1111122,1111122' 
COMPS,ioos:station:USF.COMPS:NFB:1,2014-11-01T18:12:00Z,25.0840,-81.0960,6.0,10.79,337.81,13.32,'1111122,1111122,1111122' 
COMPS,ioos:station:USF.COMPS:NFB:1,2014-11-01T18:18:00Z,25.0840,-81.0960,6.0,10.94,339.49,13.81,'1111122,1111122,1111122' 
COMPS,ioos:station:USF.COMPS:NFB:1,2014-11-01T18:24:00Z,25.0840,-81.0960,6.0,10.5,341.77,12.83,'1111122,1111122,1111122' 
COMPS,ioos:station:USF.COMPS:NFB:1,2014-11-01T18:30:00Z,25.0840,-81.0960,6.0,9.81,334.01,13.32,'1111122,1111122,1111122' 
COMPS,ioos:station:USF.COMPS:NFB:1,2014-11-01T18:36:00Z,25.0840,-81.0960,6.0,9.72,336.21,11.56,'1111122,1111122,1111122' 
COMPS,ioos:station:USF.COMPS:NFB:1,2014-11-01T18:42:00Z,25.0840,-81.0960,6.0,9.65,330.58,11.07,'1111122,1111122,1111122' 
COMPS,ioos:station:USF.COMPS:NFB:1,2014-11-01T18:48:00Z,25.0840,-81.0960,6.0,10.6,335.65,12.64,'1111122,1111122,1111122' 
COMPS,ioos:station:USF.COMPS:NFB:1,2014-11-01T18:54:00Z,25.0840,-81.0960,6.0,10.56,330.99,12.44,'1111122,1111122,1111122' 
COMPS,ioos:station:USF.COMPS:NFB:1,2014-11-01T19:00:00Z,25.0840,-81.0960,6.0,10.34,334.92,12.34,'1111122,1111122,1111122' 
COMPS,ioos:station:USF.COMPS:NFB:1,2014-11-01T19:06:00Z,25.0840,-81.0960,6.0,10.48,327.62,12.44,'1111122,1111122,1111122' 
COMPS,ioos:station:USF.COMPS:NFB:1,2014-11-01T19:12:00Z,25.0840,-81.0960,6.0,11.04,334.28,13.03,'1111122,1111122,1111122' 
COMPS,ioos:station:USF.COMPS:NFB:1,2014-11-01T19:18:00Z,25.0840,-81.0960,6.0,10.31,333.91,12.05,'1111122,1111122,1111122' 
COMPS,ioos:station:USF.COMPS:NFB:1,2014-11-01T19:24:00Z,25.0840,-81.0960,6.0,10.57,337.42,12.64,'1111122,1111122,1111122' 
COMPS,ioos:station:USF.COMPS:NFB:1,2014-11-01T19:30:00Z,25.0840,-81.0960,6.0,10.52,338.59,12.83,'1111122,1111122,1111122' 
COMPS,ioos:station:USF.COMPS:NFB:1,2014-11-01T19:36:00Z,25.0840,-81.0960,6.0,10.79,335.96,13.13,'1111122,1111122,1111122' 